STARLINK-34290, 64929

Orbit data source: Space-Track

STARLINK-34290, 64929 is a payload satellite owned by SpaceX/Seattle (US) in LEO that was launched on Sat, 26 Jul 2025 UTC via an FALCON 9 launch vehicle from the Air Force Eastern Test Range (AFETR). Payload-class satellites include a variety of spacecraft equipped with specific instruments for various scientific and technological missions. These include communications satellites like Starlink; space stations such as the ISS; scientific satellites like the Hubble; Earth observation satellites from companies like Planet Labs, Umbra, and HawkEye 360; GPS; miniature CubeSats for education and research; and military/defense satellites.

Loading next visibility...
Identifier
64929, 2025-157AB
Orbit
LEO
Country
Flag of USUS
Related business
Manufacturer
SpaceX/Seattle
Mission
Operational Commercial Communications
Bus & Motor
STARLINK V2MO, Unknown motor
Mass
575 kg wet, ~530 kg dry
Launch date (UTC)
2025-07-26 (4 months ago)
Launch vehicle
FALCON 9
Launch site
Air Force Eastern Test Range (AFETR)
Object type
Payload
Rocket body
Debris
Shape & HBR
Box + 2 Pan, 17.7 m
Radar Cross Section
36.964 m², Large (>1 m²)

Expand to show TLE details & history
Last TLE update: 16 hours ago

TLE from 16 hours ago
0 STARLINK-34290
1 64929U 25157AB  25340.52884720  .00101786  00000-0  25148-2 0  9995
2 64929  53.1579  62.4243 0001716  91.4876 268.6326 15.39692320 21807
Epoch: 2025-12-06T12:41Z
TLE epoch observation values (Epoch: 2025-12-06T12:41:32.398Z)
Latitude
0.00004°
Longitude
156.48406°
Altitude
447.95 km
Speed
7.645 km/s
True Right ascension
04h 09m 41s
True Declination
0° 00' 00"
Sunlit
Object was in full shadow at epoch
Visualization orbit readout
Latitude
Unknown
Longitude
Unknown
Altitude
Unknown
Speed
Unknown
Apparent Right ascension
Unknown
Apparent Declination
Unknown
Sunlit
N/A
Visualization observer readout
Local Sidereal Time
02:33:07
Azimuth
Unknown
Elevation
Unknown
Doppler factor
Unknown
Orbital elements
Apogee altitude
448.447 km
Perigee altitude
446.105 km
Semi-major axis
6,825.413 km
Eccentricity
0.00017
Inclination
53.1579°
RAAN
62.4243°
Arg. of periapsis
91.4876°
True anomaly
268.61294°
Mean anomaly
268.6326°
Eccentric anomaly
268.62277°
Mean motion
3.84902 °/min
Orbital period
93.53 mins
BSTAR
0.0025148
Loading maneuver chart data...
Computing Atmospheric mass density...
Loading historical data...
Loading historical data...
Loading historical data...
Loading historical data...
Loading historical data...
Loading historical data...
Loading historical data...

Documentation

Showing up to 5 results
|